Location: Shades State Park
(39.9310°N, 87.0690°W)
Time: 18:00:01
(UTC-04:00)

ISS - Visible Passes

Search period start: 20 September 2014 00:00
Search period end: 30 September 2014 00:00
Orbit: 413 x 417 km, 51.6° (Epoch: 20 September)

Date Brightness Start Highest point End Pass type
(mag) Time Alt. Az. Time Alt. Az. Time Alt. Az.
20 Sep 0.0 04:55:18 12° NNE 04:55:18 12° NNE 04:55:41 10° NNE visible
20 Sep -0.6 06:29:06 10° NNW 06:30:23 12° N 06:31:40 10° NNE visible
21 Sep -0.7 05:41:17 13° N 05:41:17 13° N 05:42:56 10° NNE visible
22 Sep -0.5 06:28:46 10° NNW 06:29:53 11° N 06:31:00 10° NNE visible
23 Sep -0.5 05:40:16 11° N 05:40:38 11° N 05:41:42 10° NNE visible
24 Sep -0.6 06:27:23 10° NNW 06:29:12 14° NNE 06:31:00 10° NE visible
25 Sep -0.5 05:39:13 11° N 05:39:54 12° N 05:41:16 10° NNE visible
26 Sep -1.0 06:25:38 10° NNW 06:28:14 21° NNE 06:30:50 10° ENE visible
27 Sep -0.7 05:38:17 15° N 05:38:56 16° NNE 05:41:06 10° ENE visible
28 Sep -2.0 06:24:21 14° NW 06:26:57 40° NNE 06:30:06 10° ESE visible
29 Sep -1.3 05:37:38 26° NNE 05:37:40 26° NNE 05:40:32 10° E visible
29 Sep -2.7 07:11:17 10° WNW 07:14:27 41° SW 07:17:35 10° SSE visible
